Location: K�ln
(50.9455°N, 6.9544°E)
Time: 12:13:04
(UTC+02:00)

ELECTRON R/B - Visible Passes

Search period start: 20 May 2018 00:00
Search period end: 30 May 2018 00:00
Orbit: 285 x 480 km, 82.9° (Epoch: 19 May)

Date Brightness Start Highest point End Pass type
(mag) Time Alt. Az. Time Alt. Az. Time Alt. Az.
20 May 4.4 22:25:47 10° NNW 22:28:15 79° W 22:30:40 10° S visible
21 May 7.2 23:03:01 10° NW 23:04:35 15° W 23:06:09 10° SW visible
22 May 4.3 22:05:53 10° N 22:08:20 86° ENE 22:10:45 10° S visible
23 May 7.1 22:42:48 10° NW 22:44:33 17° W 22:46:17 10° SW visible
25 May 6.9 22:22:18 10° NW 22:24:13 20° W 22:26:08 10° SW visible
